THY540 LTFM-FNBJ

Flight info

Callsign THY540
Flight time N/A
Altitude 36000
Route BARPE UM603 TSL UM600 KOGIS DCT DINOB/N0473F350 DCT LORED/N0475F360 DCT VARIG/N0472F350 P709 ZAW/N0473F360 M600 IMN UB727 BERTI/N0482F370 UR978 AS UA604 JOS DCT OBUDU UA604 MF/N0479F390 UA604 KOKAM UR854 DLA UG861 MESIN UY339 LIKAD UR526 VNA
Aircraft B77W/H-SDE1E2E3FGHIJ1J3J4J5M1P1P2RWXYZ/LB1D1

Departure

Time N/A
Airport İstanbul Airport (LTFM)

Arrival

Time 2026-04-25 18:11
Airport Dr. Antonio Agostinho Neto International Airport (FNBJ)
Time Latitude Longitude Altitude Speed Heading
2026-04-25 17:48 -8.59252 13.14098 34269 ft 432 kts 154°
2026-04-25 17:48 -8.62020 13.15256 33076 ft 429 kts 154°
2026-04-25 17:48 -8.64683 13.16553 31950 ft 420 kts 146°
2026-04-25 17:49 -8.67002 13.18266 31091 ft 406 kts 135°
2026-04-25 17:49 -8.68867 13.20283 30328 ft 391 kts 125°
2026-04-25 17:49 -8.70284 13.22566 29498 ft 379 kts 115°
2026-04-25 17:49 -8.71183 13.24917 28500 ft 373 kts 104°
2026-04-25 17:52 -8.71416 13.25911 28080 ft 371 kts 100°
2026-04-25 17:52 -8.71555 13.26782 27714 ft 370 kts 96°
2026-04-25 17:52 -8.71366 13.31028 26013 ft 367 kts 77°
2026-04-25 17:52 -8.70618 13.33475 25079 ft 363 kts 70°
2026-04-25 17:53 -8.69906 13.35906 24163 ft 358 kts 81°
2026-04-25 17:53 -8.69787 13.38400 23223 ft 355 kts 95°
2026-04-25 17:53 -8.70311 13.40820 22227 ft 351 kts 111°
2026-04-25 17:53 -8.71467 13.42973 21330 ft 346 kts 127°
2026-04-25 17:54 -8.73203 13.44628 20434 ft 343 kts 147°
2026-04-25 17:54 -8.75390 13.45519 19550 ft 341 kts 169°
2026-04-25 17:54 -8.77747 13.45542 18697 ft 340 kts 190°
2026-04-25 17:54 -8.79971 13.44766 17829 ft 338 kts 207°
2026-04-25 17:55 -8.81830 13.43346 16928 ft 335 kts 223°
2026-04-25 17:55 -8.83485 13.41669 16141 ft 341 kts 225°
2026-04-25 17:55 -8.85114 13.39956 15703 ft 342 kts 225°
2026-04-25 17:55 -8.86760 13.38219 15300 ft 342 kts 225°
2026-04-25 17:56 -8.88404 13.36493 14916 ft 341 kts 224°
2026-04-25 17:56 -8.90057 13.34771 14556 ft 340 kts 224°
2026-04-25 17:56 -8.91704 13.33065 14203 ft 338 kts 224°
2026-04-25 17:56 -8.93348 13.31369 13838 ft 337 kts 224°
2026-04-25 17:57 -8.94988 13.29680 13428 ft 336 kts 224°
2026-04-25 17:57 -8.96623 13.27999 13026 ft 335 kts 224°
2026-04-25 17:57 -8.98258 13.26318 12639 ft 334 kts 224°
2026-04-25 17:57 -8.98787 13.25775 12494 ft 333 kts 224°
2026-04-25 17:58 -9.01463 13.23022 11856 ft 321 kts 224°
2026-04-25 17:58 -9.03030 13.21411 11514 ft 320 kts 224°
2026-04-25 17:58 -9.04592 13.19805 11215 ft 316 kts 224°
2026-04-25 17:58 -9.06115 13.18237 11088 ft 308 kts 224°
2026-04-25 17:59 -9.07594 13.16715 10949 ft 299 kts 224°
2026-04-25 17:59 -9.09034 13.15235 10817 ft 291 kts 224°
2026-04-25 17:59 -9.10413 13.13815 10700 ft 283 kts 224°
2026-04-25 17:59 -9.11774 13.12416 10574 ft 274 kts 224°
2026-04-25 18:00 -9.12664 13.11500 10481 ft 269 kts 224°
2026-04-25 18:00 -9.14408 13.09744 10139 ft 260 kts 216°
2026-04-25 18:00 -9.15993 13.08991 9999 ft 255 kts 186°
2026-04-25 18:00 -9.17730 13.09127 9665 ft 248 kts 158°
2026-04-25 18:01 -9.19230 13.09930 9340 ft 241 kts 137°
2026-04-25 18:01 -9.20405 13.11114 9050 ft 236 kts 129°
2026-04-25 18:01 -9.21481 13.12363 8746 ft 234 kts 128°
2026-04-25 18:01 -9.22546 13.13599 8457 ft 232 kts 129°
2026-04-25 18:02 -9.23613 13.14821 8178 ft 231 kts 129°
2026-04-25 18:02 -9.24682 13.16036 7900 ft 230 kts 129°
2026-04-25 18:02 -9.25735 13.17227 7624 ft 230 kts 129°
2026-04-25 18:02 -9.26759 13.18454 7329 ft 226 kts 118°
2026-04-25 18:03 -9.27276 13.19930 7057 ft 221 kts 94°
2026-04-25 18:03 -9.27144 13.21454 6804 ft 218 kts 75°
2026-04-25 18:03 -9.26523 13.22834 6505 ft 216 kts 54°
2026-04-25 18:03 -9.25584 13.24016 6256 ft 215 kts 53°
2026-04-25 18:04 -9.24665 13.25215 5986 ft 215 kts 54°
2026-04-25 18:04 -9.23763 13.26419 5708 ft 214 kts 55°
2026-04-25 18:04 -9.22883 13.27604 5438 ft 212 kts 55°
2026-04-25 18:04 -9.21999 13.28799 5174 ft 211 kts 55°
2026-04-25 18:05 -9.21429 13.29570 4986 ft 211 kts 55°
2026-04-25 18:05 -9.20897 13.30290 4832 ft 210 kts 55°
2026-04-25 18:05 -9.20024 13.31473 4554 ft 209 kts 55°
2026-04-25 18:05 -9.19159 13.32643 4332 ft 205 kts 55°
2026-04-25 18:06 -9.18304 13.33801 4035 ft 206 kts 56°
2026-04-25 18:06 -9.17448 13.34960 3772 ft 204 kts 55°
2026-04-25 18:06 -9.16615 13.36087 3480 ft 196 kts 55°
2026-04-25 18:06 -9.15814 13.37171 3291 ft 189 kts 55°
2026-04-25 18:07 -9.15032 13.38229 3037 ft 186 kts 55°
2026-04-25 18:07 -9.14259 13.39277 2788 ft 185 kts 55°
2026-04-25 18:07 -9.13497 13.40309 2546 ft 182 kts 55°
2026-04-25 18:07 -9.12765 13.41301 2350 ft 172 kts 56°
2026-04-25 18:08 -9.12068 13.42241 2077 ft 158 kts 54°
2026-04-25 18:08 -9.11436 13.43097 1931 ft 150 kts 56°
2026-04-25 18:08 -9.10810 13.43945 1729 ft 151 kts 55°
2026-04-25 18:08 -9.10396 13.44504 1611 ft 150 kts 55°
2026-04-25 18:09 -9.09768 13.45353 1398 ft 149 kts 55°
2026-04-25 18:09 -9.09146 13.46195 1171 ft 150 kts 54°
2026-04-25 18:09 -9.08527 13.47037 1003 ft 150 kts 54°
2026-04-25 18:09 -9.08114 13.47597 885 ft 150 kts 53°
2026-04-25 18:10 -9.07275 13.48728 660 ft 150 kts 52°
2026-04-25 18:10 -9.06658 13.49571 570 ft 144 kts 52°
2026-04-25 18:10 -9.06108 13.50303 563 ft 114 kts 53°
2026-04-25 18:10 -9.05704 13.50846 570 ft 79 kts 52°
2026-04-25 18:11 -9.05476 13.51020 563 ft 24 kts 17°
2026-04-25 18:11 -9.05375 13.50989 556 ft 15 kts 269°
2026-04-25 18:11 -9.05460 13.50863 558 ft 27 kts 229°
2026-04-25 18:11 -9.05582 13.50700 559 ft 30 kts 235°
2026-04-25 18:12 -9.05703 13.50530 559 ft 30 kts 234°
2026-04-25 18:12 -9.05823 13.50360 549 ft 29 kts 236°
2026-04-25 18:12 -9.05940 13.50200 549 ft 29 kts 231°
2026-04-25 18:12 -9.06048 13.50047 548 ft 20 kts 259°
2026-04-25 18:13 -9.05973 13.49952 546 ft 18 kts 324°
2026-04-25 18:13 -9.05872 13.49873 545 ft 18 kts 321°
2026-04-25 18:13 -9.05771 13.49796 545 ft 18 kts 324°
2026-04-25 18:14 -9.05564 13.49647 545 ft 18 kts 322°
2026-04-25 18:14 -9.05468 13.49569 545 ft 18 kts 321°
2026-04-25 18:14 -9.05437 13.49550 545 ft 0 kts 340°
2026-04-25 18:14 -9.05423 13.49556 545 ft 4 kts 28°
2026-04-25 18:15 -9.05391 13.49543 545 ft 11 kts 314°
2026-04-25 18:15 -9.05338 13.49480 545 ft 9 kts 313°
2026-04-25 18:15 -9.05292 13.49448 545 ft 5 kts
2026-04-25 18:15 -9.05277 13.49485 545 ft 7 kts 98°
2026-04-25 18:16 -9.05280 13.49538 545 ft 5 kts 90°
2026-04-25 18:16 -9.05279 13.49550 545 ft 2 kts 89°
2026-04-25 18:16 -9.05279 13.49548 545 ft 0 kts 89°